Year,Month,Day,Hour,Minute,Value (Times are PST for windspeed in km/hr)
2009,07,18,00,00,1.40
2009,07,18,00,01,0.00
2009,07,18,00,02,0.00
2009,07,18,00,03,0.30
2009,07,18,00,04,0.00
2009,07,18,00,05,0.00
2009,07,18,00,06,0.00
2009,07,18,00,07,0.00
2009,07,18,00,08,0.00
2009,07,18,00,09,0.00
2009,07,18,00,10,0.00
2009,07,18,00,11,0.00
2009,07,18,00,12,0.00
2009,07,18,00,13,0.00
2009,07,18,00,14,0.00
2009,07,18,00,15,0.00
2009,07,18,00,16,0.00
2009,07,18,00,17,0.00
2009,07,18,00,18,0.20
2009,07,18,00,19,0.00
2009,07,18,00,20,0.00
2009,07,18,00,21,0.00
2009,07,18,00,22,0.00
2009,07,18,00,23,0.00
2009,07,18,00,24,0.00
2009,07,18,00,25,0.00
2009,07,18,00,26,0.00
2009,07,18,00,27,0.00
2009,07,18,00,28,0.10
2009,07,18,00,29,0.00
2009,07,18,00,30,0.00
2009,07,18,00,31,0.00
2009,07,18,00,32,0.00
2009,07,18,00,33,0.00
2009,07,18,00,34,0.00
2009,07,18,00,35,0.00
2009,07,18,00,36,1.80
2009,07,18,00,37,0.70
2009,07,18,00,38,0.00
2009,07,18,00,39,0.00
2009,07,18,00,40,0.00
2009,07,18,00,41,0.00
2009,07,18,00,42,0.00
2009,07,18,00,43,0.00
2009,07,18,00,44,0.00
2009,07,18,00,45,0.20
2009,07,18,00,46,0.00
2009,07,18,00,47,0.10
2009,07,18,00,48,0.30
2009,07,18,00,49,1.00
2009,07,18,00,50,0.00
2009,07,18,00,51,0.00
2009,07,18,00,52,0.00
2009,07,18,00,53,0.00
2009,07,18,00,54,0.00
2009,07,18,00,55,0.00
2009,07,18,00,56,0.00
2009,07,18,00,57,0.00
2009,07,18,00,58,0.00
2009,07,18,00,59,0.00
2009,07,18,01,00,0.10
2009,07,18,01,01,0.00
2009,07,18,01,02,0.00
2009,07,18,01,03,2.70
2009,07,18,01,04,1.60
2009,07,18,01,05,0.20
2009,07,18,01,06,0.20
2009,07,18,01,07,3.70
2009,07,18,01,08,8.40
2009,07,18,01,09,7.40
2009,07,18,01,10,8.00
2009,07,18,01,11,7.40
2009,07,18,01,12,6.20
2009,07,18,01,13,1.10
2009,07,18,01,14,5.10
2009,07,18,01,15,3.10
2009,07,18,01,16,2.80
2009,07,18,01,17,2.60
2009,07,18,01,18,2.30
2009,07,18,01,19,2.40
2009,07,18,01,20,2.10
2009,07,18,01,21,4.50
2009,07,18,01,22,4.20
2009,07,18,01,23,1.00
2009,07,18,01,24,2.30
2009,07,18,01,25,3.60
2009,07,18,01,26,7.60
2009,07,18,01,27,8.40
2009,07,18,01,28,4.10
2009,07,18,01,29,5.90
2009,07,18,01,30,2.80
2009,07,18,01,31,7.00
2009,07,18,01,32,3.20
2009,07,18,01,33,2.10
2009,07,18,01,34,4.40
2009,07,18,01,35,0.70
2009,07,18,01,36,2.70
2009,07,18,01,37,7.00
2009,07,18,01,38,5.60
2009,07,18,01,39,3.20
2009,07,18,01,40,0.90
2009,07,18,01,41,2.30
2009,07,18,01,42,1.70
2009,07,18,01,43,2.90
2009,07,18,01,44,1.30
2009,07,18,01,45,2.10
2009,07,18,01,46,1.80
2009,07,18,01,47,2.90
2009,07,18,01,48,6.40
2009,07,18,01,49,2.20
2009,07,18,01,50,2.60
2009,07,18,01,51,1.30
2009,07,18,01,52,3.20
2009,07,18,01,53,4.60
2009,07,18,01,54,5.00
2009,07,18,01,55,0.40
2009,07,18,01,56,1.40
2009,07,18,01,57,0.00
2009,07,18,01,58,1.90
2009,07,18,01,59,1.60
2009,07,18,02,00,0.20
2009,07,18,02,01,0.10
2009,07,18,02,02,0.40
2009,07,18,02,03,0.10
2009,07,18,02,04,5.60
2009,07,18,02,05,1.00
2009,07,18,02,06,2.90
2009,07,18,02,07,5.00
2009,07,18,02,08,6.10
2009,07,18,02,09,2.40
2009,07,18,02,10,0.20
2009,07,18,02,11,2.40
2009,07,18,02,12,0.70
2009,07,18,02,13,0.00
2009,07,18,02,14,1.90
2009,07,18,02,15,0.10
2009,07,18,02,16,1.40
2009,07,18,02,17,0.10
2009,07,18,02,18,0.00
2009,07,18,02,19,2.50
2009,07,18,02,20,1.20
2009,07,18,02,21,0.60
2009,07,18,02,22,0.20
2009,07,18,02,23,1.90
2009,07,18,02,24,0.20
2009,07,18,02,25,0.40
2009,07,18,02,26,0.00
2009,07,18,02,27,0.50
2009,07,18,02,28,4.40
2009,07,18,02,29,3.90
2009,07,18,02,30,6.70
2009,07,18,02,31,5.50
2009,07,18,02,32,6.80
2009,07,18,02,33,5.40
2009,07,18,02,34,3.00
2009,07,18,02,35,4.00
2009,07,18,02,36,1.90
2009,07,18,02,37,3.10
2009,07,18,02,38,2.30
2009,07,18,02,39,1.50
2009,07,18,02,40,1.70
2009,07,18,02,41,0.30
2009,07,18,02,42,2.60
2009,07,18,02,43,4.30
2009,07,18,02,44,10.60
2009,07,18,02,45,12.40
2009,07,18,02,46,9.80
2009,07,18,02,47,4.30
2009,07,18,02,48,5.30
2009,07,18,02,49,3.10
2009,07,18,02,50,4.40
2009,07,18,02,51,2.10
2009,07,18,02,52,8.60
2009,07,18,02,53,5.80
2009,07,18,02,54,7.60
2009,07,18,02,55,8.90
2009,07,18,02,56,8.20
2009,07,18,02,57,4.50
2009,07,18,02,58,6.80
2009,07,18,02,59,3.60
2009,07,18,03,00,1.70
2009,07,18,03,01,4.70
2009,07,18,03,02,5.80
2009,07,18,03,03,4.20
2009,07,18,03,04,10.60
2009,07,18,03,05,7.10
2009,07,18,03,06,4.60
2009,07,18,03,07,7.10
2009,07,18,03,08,6.00
2009,07,18,03,09,6.30
2009,07,18,03,10,9.70
2009,07,18,03,11,8.30
2009,07,18,03,12,7.30
2009,07,18,03,13,5.50
2009,07,18,03,14,6.00
2009,07,18,03,15,6.90
2009,07,18,03,16,12.80
2009,07,18,03,17,8.00
2009,07,18,03,18,6.90
2009,07,18,03,19,6.30
2009,07,18,03,20,4.00
2009,07,18,03,21,3.50
2009,07,18,03,22,3.00
2009,07,18,03,23,12.20
2009,07,18,03,24,9.60
2009,07,18,03,25,4.40
2009,07,18,03,26,4.10
2009,07,18,03,27,3.30
2009,07,18,03,28,11.80
2009,07,18,03,29,10.80
2009,07,18,03,30,5.20
2009,07,18,03,31,8.30
2009,07,18,03,32,7.10
2009,07,18,03,33,14.50
2009,07,18,03,34,12.60
2009,07,18,03,35,11.50
2009,07,18,03,36,10.80
2009,07,18,03,37,10.80
2009,07,18,03,38,9.50
2009,07,18,03,39,11.60
2009,07,18,03,40,10.90
2009,07,18,03,41,9.20
2009,07,18,03,42,6.30
2009,07,18,03,43,8.10
2009,07,18,03,44,11.10
2009,07,18,03,45,9.20
2009,07,18,03,46,7.70
2009,07,18,03,47,8.70
2009,07,18,03,48,9.30
2009,07,18,03,49,11.40
2009,07,18,03,50,8.30
2009,07,18,03,51,9.20
2009,07,18,03,52,10.20
2009,07,18,03,53,9.70
2009,07,18,03,54,11.80
2009,07,18,03,55,7.50
2009,07,18,03,56,8.90
2009,07,18,03,57,8.60
2009,07,18,03,58,10.10
2009,07,18,03,59,9.30
2009,07,18,04,00,5.10
2009,07,18,04,01,7.40
2009,07,18,04,02,7.50
2009,07,18,04,03,8.20
2009,07,18,04,10,10.90
2009,07,18,04,11,9.50
2009,07,18,04,12,10.90
2009,07,18,04,13,10.90
2009,07,18,04,14,8.70
2009,07,18,04,15,9.10
2009,07,18,04,16,10.00
2009,07,18,04,17,8.30
2009,07,18,04,18,7.60
2009,07,18,04,19,6.10
2009,07,18,04,20,6.30
2009,07,18,04,21,5.70
2009,07,18,04,22,5.70
2009,07,18,04,23,5.50
2009,07,18,04,24,6.40
2009,07,18,04,25,4.70
2009,07,18,04,26,6.80
2009,07,18,04,27,5.50
2009,07,18,04,28,7.40
2009,07,18,04,29,6.50
2009,07,18,04,30,4.90
2009,07,18,04,31,5.80
2009,07,18,04,32,6.40
2009,07,18,04,33,3.10
2009,07,18,04,34,3.50
2009,07,18,04,35,3.20
2009,07,18,04,36,3.80
2009,07,18,04,37,2.90
2009,07,18,04,38,0.70
2009,07,18,04,39,0.10
2009,07,18,04,40,0.00
2009,07,18,04,41,0.20
2009,07,18,04,42,0.10
2009,07,18,04,43,0.20
2009,07,18,04,44,0.60
2009,07,18,04,45,2.90
2009,07,18,04,46,1.90
2009,07,18,04,47,0.90
2009,07,18,04,48,0.20
2009,07,18,04,49,1.00
2009,07,18,04,50,1.10
2009,07,18,04,51,0.50
2009,07,18,04,52,1.90
2009,07,18,04,53,0.50
2009,07,18,04,54,1.80
2009,07,18,04,55,0.20
2009,07,18,04,56,0.00
2009,07,18,04,57,0.00
2009,07,18,04,58,0.00
2009,07,18,04,59,0.00
2009,07,18,05,00,0.00
2009,07,18,05,01,0.00
2009,07,18,05,02,0.00
2009,07,18,05,03,0.00
2009,07,18,05,04,0.00
2009,07,18,05,05,0.00
2009,07,18,05,06,0.00
2009,07,18,05,07,0.00
2009,07,18,05,08,0.00
2009,07,18,05,09,0.00
2009,07,18,05,10,0.00
2009,07,18,05,11,0.20
2009,07,18,05,12,1.60
2009,07,18,05,13,0.10
2009,07,18,05,14,0.00
2009,07,18,05,15,0.00
2009,07,18,05,16,0.00
2009,07,18,05,17,0.00
2009,07,18,05,18,0.00
2009,07,18,05,19,0.00
2009,07,18,05,20,0.00
2009,07,18,05,21,0.00
2009,07,18,05,22,0.00
2009,07,18,05,23,0.10
2009,07,18,05,24,0.00
2009,07,18,05,25,0.00
2009,07,18,05,26,0.00
2009,07,18,05,27,0.10
2009,07,18,05,28,0.00
2009,07,18,05,29,0.00
2009,07,18,05,30,0.00
2009,07,18,05,31,0.00
2009,07,18,05,32,0.00
2009,07,18,05,33,0.00
2009,07,18,05,34,0.00
2009,07,18,05,35,0.00
2009,07,18,05,36,0.00
2009,07,18,05,37,0.00
2009,07,18,05,38,0.00
2009,07,18,05,39,0.00
2009,07,18,05,40,0.00
2009,07,18,05,41,0.00
2009,07,18,05,42,0.00
2009,07,18,05,43,0.00
2009,07,18,05,44,0.00
2009,07,18,05,45,0.00
2009,07,18,05,46,0.00
2009,07,18,05,47,0.00
2009,07,18,05,48,0.00
2009,07,18,05,49,0.00
2009,07,18,05,50,0.00
2009,07,18,05,51,0.00
2009,07,18,05,52,0.00
2009,07,18,05,53,0.00
2009,07,18,05,54,1.10
2009,07,18,05,55,0.60
2009,07,18,05,56,0.70
2009,07,18,05,57,0.90
2009,07,18,05,58,0.20
2009,07,18,05,59,0.00
2009,07,18,06,00,0.20
2009,07,18,06,01,0.10
2009,07,18,06,02,0.00
2009,07,18,06,03,1.70
2009,07,18,06,04,0.60
2009,07,18,06,05,1.00
2009,07,18,06,06,1.00
2009,07,18,06,07,1.80
2009,07,18,06,08,2.50
2009,07,18,06,09,0.60
2009,07,18,06,10,1.10
2009,07,18,06,11,1.10
2009,07,18,06,12,1.70
2009,07,18,06,13,2.10
2009,07,18,06,14,0.50
2009,07,18,06,15,0.10
2009,07,18,06,16,0.20
2009,07,18,06,17,0.10
2009,07,18,06,18,0.00
2009,07,18,06,19,0.00
2009,07,18,06,20,0.00
2009,07,18,06,21,0.20
2009,07,18,06,22,0.00
2009,07,18,06,23,0.80
2009,07,18,06,24,0.00
2009,07,18,06,25,0.00
2009,07,18,06,26,0.00
2009,07,18,06,27,0.00
2009,07,18,06,28,0.00
2009,07,18,06,29,0.20
2009,07,18,06,30,0.10
2009,07,18,06,31,2.30
2009,07,18,06,32,0.20
2009,07,18,06,33,0.40
2009,07,18,06,34,0.80
2009,07,18,06,35,0.20
2009,07,18,06,36,0.00
2009,07,18,06,37,0.00
2009,07,18,06,38,0.20
2009,07,18,06,39,0.20
2009,07,18,06,40,0.00
2009,07,18,06,41,0.00
2009,07,18,06,42,0.00
2009,07,18,06,43,0.10
2009,07,18,06,44,0.00
2009,07,18,06,45,0.00
2009,07,18,06,46,0.00
2009,07,18,06,47,0.00
2009,07,18,06,48,0.60
2009,07,18,06,49,1.20
2009,07,18,06,50,0.60
2009,07,18,06,51,0.00
2009,07,18,06,52,0.00
2009,07,18,06,53,0.00
2009,07,18,06,54,0.00
2009,07,18,06,55,0.40
2009,07,18,06,56,0.00
2009,07,18,06,57,0.00
2009,07,18,06,58,0.40
2009,07,18,06,59,0.90
2009,07,18,07,00,0.00
2009,07,18,07,01,0.00
2009,07,18,07,02,0.20
2009,07,18,07,03,0.00
2009,07,18,07,04,0.70
2009,07,18,07,05,0.90
2009,07,18,07,06,4.40
2009,07,18,07,07,1.90
2009,07,18,07,08,2.30
2009,07,18,07,09,0.30
2009,07,18,07,10,0.20
2009,07,18,07,11,1.00
2009,07,18,07,12,2.90
2009,07,18,07,13,2.20
2009,07,18,07,14,0.00
2009,07,18,07,15,0.00
2009,07,18,07,16,0.00
2009,07,18,07,17,1.10
2009,07,18,07,18,2.80
2009,07,18,07,19,1.20
2009,07,18,07,20,0.10
2009,07,18,07,21,0.30
2009,07,18,07,22,0.30
2009,07,18,07,23,0.00
2009,07,18,07,24,0.60
2009,07,18,07,25,0.80
2009,07,18,07,26,0.00
2009,07,18,07,27,0.00
2009,07,18,07,28,0.00
2009,07,18,07,29,1.40
2009,07,18,07,30,2.30
2009,07,18,07,31,5.30
2009,07,18,07,32,3.10
2009,07,18,07,33,0.10
2009,07,18,07,34,2.60
2009,07,18,07,35,1.20
2009,07,18,07,36,1.00
2009,07,18,07,37,5.50
2009,07,18,07,38,2.70
2009,07,18,07,39,2.20
2009,07,18,07,40,4.30
2009,07,18,07,41,4.70
2009,07,18,07,42,3.10
2009,07,18,07,43,3.40
2009,07,18,07,44,0.90
2009,07,18,07,45,0.30
2009,07,18,07,46,0.70
2009,07,18,07,47,2.50
2009,07,18,07,48,4.70
2009,07,18,07,49,8.80
2009,07,18,07,50,5.50
2009,07,18,07,51,3.80
2009,07,18,07,52,5.40
2009,07,18,07,53,3.20
2009,07,18,07,54,4.90
2009,07,18,07,55,3.60
2009,07,18,07,56,7.30
2009,07,18,07,57,7.80
2009,07,18,07,58,7.10
2009,07,18,07,59,8.30
2009,07,18,08,00,3.30
2009,07,18,08,01,3.10
2009,07,18,08,02,4.90
2009,07,18,08,03,2.90
2009,07,18,08,04,4.30
2009,07,18,08,05,3.70
2009,07,18,08,06,0.20
2009,07,18,08,07,1.80
2009,07,18,08,08,0.20
2009,07,18,08,09,2.60
2009,07,18,08,10,2.60
2009,07,18,08,11,5.50
2009,07,18,08,12,3.00
2009,07,18,08,13,2.20
2009,07,18,08,14,4.30
2009,07,18,08,15,0.40
2009,07,18,08,16,5.20
2009,07,18,08,17,2.00
2009,07,18,08,18,1.60
2009,07,18,08,19,0.40
2009,07,18,08,20,4.00
2009,07,18,08,21,0.40
2009,07,18,08,22,0.00
2009,07,18,08,23,0.00
2009,07,18,08,24,1.90
2009,07,18,08,25,0.50
2009,07,18,08,26,5.00
2009,07,18,08,27,5.40
2009,07,18,08,28,2.70
2009,07,18,08,29,1.10
2009,07,18,08,30,0.80
2009,07,18,08,31,0.20
2009,07,18,08,32,3.30
2009,07,18,08,33,3.80
2009,07,18,08,34,1.30
2009,07,18,08,35,6.00
2009,07,18,08,36,4.20
2009,07,18,08,37,8.60
2009,07,18,08,38,5.90
2009,07,18,08,39,2.80
2009,07,18,08,40,3.40
2009,07,18,08,41,4.50
2009,07,18,08,42,5.80
2009,07,18,08,43,2.60
2009,07,18,08,44,5.50
2009,07,18,08,45,4.70
2009,07,18,08,46,7.70
2009,07,18,08,47,5.60
2009,07,18,08,48,5.00
2009,07,18,08,49,6.00
2009,07,18,08,50,6.40
2009,07,18,08,51,6.20
2009,07,18,08,52,7.20
2009,07,18,08,53,11.50
2009,07,18,08,54,6.90
2009,07,18,08,55,7.40
2009,07,18,08,56,7.20
2009,07,18,08,57,3.50
2009,07,18,08,58,5.60
2009,07,18,08,59,6.80
2009,07,18,09,00,9.80
2009,07,18,09,01,5.70
2009,07,18,09,02,3.20
2009,07,18,09,03,5.70
2009,07,18,09,04,4.90
2009,07,18,09,05,8.20
2009,07,18,09,06,7.50
2009,07,18,09,07,8.30
2009,07,18,09,08,8.10
2009,07,18,09,09,7.80
2009,07,18,09,10,10.20
2009,07,18,09,11,11.30
2009,07,18,09,12,12.00
2009,07,18,09,13,8.10
2009,07,18,09,14,6.70
2009,07,18,09,15,10.70
2009,07,18,09,16,5.80
2009,07,18,09,17,5.70
2009,07,18,09,18,6.70
2009,07,18,09,19,7.70
2009,07,18,09,20,10.10
2009,07,18,09,21,4.80
2009,07,18,09,22,4.70
2009,07,18,09,23,3.40
2009,07,18,09,24,2.20
2009,07,18,09,25,4.10
2009,07,18,09,26,2.80
2009,07,18,09,27,6.20
2009,07,18,09,28,6.00
2009,07,18,09,29,8.00
2009,07,18,09,30,5.80
2009,07,18,09,31,7.30
2009,07,18,09,32,5.80
2009,07,18,09,33,11.20
2009,07,18,09,34,7.40
2009,07,18,09,35,5.80
2009,07,18,09,36,8.20
2009,07,18,09,37,6.90
2009,07,18,09,38,8.20
2009,07,18,09,39,8.30
2009,07,18,09,40,5.80
2009,07,18,09,41,2.20
2009,07,18,09,42,8.60
2009,07,18,09,43,9.30
2009,07,18,09,44,6.00
2009,07,18,09,45,5.70
2009,07,18,09,46,10.50
2009,07,18,09,47,9.80
2009,07,18,09,48,9.00
2009,07,18,09,49,11.40
2009,07,18,09,50,6.70
2009,07,18,09,51,6.10
2009,07,18,09,52,5.40
2009,07,18,09,53,7.00
2009,07,18,09,54,4.70
2009,07,18,09,55,3.10
2009,07,18,09,56,2.40
2009,07,18,09,57,5.90
2009,07,18,09,58,2.60
2009,07,18,09,59,5.90
2009,07,18,10,00,4.80
2009,07,18,10,01,6.00
2009,07,18,10,02,1.80
2009,07,18,10,03,2.60
2009,07,18,10,04,4.30
2009,07,18,10,05,5.30
2009,07,18,10,06,3.20
2009,07,18,10,07,5.00
2009,07,18,10,08,4.20
2009,07,18,10,09,1.40
2009,07,18,10,10,0.40
2009,07,18,10,11,2.70
2009,07,18,10,12,1.90
2009,07,18,10,13,5.70
2009,07,18,10,14,1.10
2009,07,18,10,15,1.70
2009,07,18,10,16,2.60
2009,07,18,10,17,6.10
2009,07,18,10,18,2.30
2009,07,18,10,19,0.60
2009,07,18,10,20,4.10
2009,07,18,10,21,4.80
2009,07,18,10,22,3.50
2009,07,18,10,23,4.10
2009,07,18,10,24,1.90
2009,07,18,10,25,7.10
2009,07,18,10,26,2.20
2009,07,18,10,27,12.10
2009,07,18,10,28,6.70
2009,07,18,10,29,9.60
2009,07,18,10,30,6.00
2009,07,18,10,31,4.10
2009,07,18,10,32,4.70
2009,07,18,10,33,6.00
2009,07,18,10,34,6.70
2009,07,18,10,35,9.80
2009,07,18,10,36,7.70
2009,07,18,10,37,18.20
2009,07,18,10,38,12.70
2009,07,18,10,39,8.90
2009,07,18,10,40,12.50
2009,07,18,10,41,10.50
2009,07,18,10,42,8.90
2009,07,18,10,43,14.50
2009,07,18,10,44,13.50
2009,07,18,10,45,18.90
2009,07,18,10,46,10.30
2009,07,18,10,47,12.70
2009,07,18,10,48,13.90
2009,07,18,10,49,15.80
2009,07,18,10,50,6.10
2009,07,18,10,51,7.50
2009,07,18,10,52,12.20
2009,07,18,10,53,12.30
2009,07,18,10,54,9.90
2009,07,18,10,55,11.60
2009,07,18,10,56,9.40
2009,07,18,10,57,9.80
2009,07,18,10,58,12.80
2009,07,18,10,59,11.20
2009,07,18,11,00,10.70
2009,07,18,11,01,12.80
2009,07,18,11,02,7.80
2009,07,18,11,03,13.40
2009,07,18,11,04,8.40
2009,07,18,11,05,6.00
2009,07,18,11,06,7.40
2009,07,18,11,07,6.70
2009,07,18,11,08,7.60
2009,07,18,11,09,14.10
2009,07,18,11,10,6.30
2009,07,18,11,11,12.40
2009,07,18,11,12,7.20
2009,07,18,11,13,12.80
2009,07,18,11,14,14.60
2009,07,18,11,15,15.80
2009,07,18,11,16,10.50
2009,07,18,11,17,7.60
2009,07,18,11,18,11.70
2009,07,18,11,19,13.80
2009,07,18,11,20,15.90
2009,07,18,11,21,12.70
2009,07,18,11,22,13.10
2009,07,18,11,23,8.80
2009,07,18,11,24,8.70
2009,07,18,11,25,8.80
2009,07,18,11,26,10.50
2009,07,18,11,27,9.80
2009,07,18,11,28,10.90
2009,07,18,11,29,16.40
2009,07,18,11,30,10.30
2009,07,18,11,31,13.10
2009,07,18,11,32,10.00
2009,07,18,11,33,9.10
2009,07,18,11,34,14.70
2009,07,18,11,35,10.20
2009,07,18,11,36,9.50
2009,07,18,11,37,20.30
2009,07,18,11,38,8.30
2009,07,18,11,39,15.60
2009,07,18,11,40,15.50
2009,07,18,11,41,13.70
2009,07,18,11,42,14.00
2009,07,18,11,43,15.60
2009,07,18,11,44,18.60
2009,07,18,11,45,11.70
2009,07,18,11,46,8.40
2009,07,18,11,47,12.70
2009,07,18,11,48,23.60
2009,07,18,11,49,16.70
2009,07,18,11,50,9.40
2009,07,18,11,51,9.20
2009,07,18,11,52,14.80
2009,07,18,11,53,17.90
2009,07,18,11,54,11.90
2009,07,18,11,55,9.00
2009,07,18,11,56,11.40
2009,07,18,11,57,15.00
2009,07,18,11,58,19.50
2009,07,18,11,59,11.60
2009,07,18,12,00,11.70
2009,07,18,12,01,16.60
2009,07,18,12,02,22.60
2009,07,18,12,03,16.50
2009,07,18,12,04,13.60
2009,07,18,12,05,16.20
2009,07,18,12,06,16.30
2009,07,18,12,07,19.50
2009,07,18,12,08,14.40
2009,07,18,12,09,19.10
2009,07,18,12,10,21.10
2009,07,18,12,11,14.60
2009,07,18,12,12,15.90
2009,07,18,12,13,16.20
2009,07,18,12,14,20.10
2009,07,18,12,15,22.00
2009,07,18,12,16,18.70
2009,07,18,12,17,14.30
2009,07,18,12,18,15.30
2009,07,18,12,19,19.30
2009,07,18,12,20,20.10
2009,07,18,12,21,18.10
2009,07,18,12,22,19.10
2009,07,18,12,23,16.80
2009,07,18,12,24,14.80
2009,07,18,12,25,15.90
2009,07,18,12,26,12.70
2009,07,18,12,27,12.20
2009,07,18,12,28,11.00
2009,07,18,12,29,9.30
2009,07,18,12,30,8.00
2009,07,18,12,31,17.90
2009,07,18,12,32,9.40
2009,07,18,12,33,8.40
2009,07,18,12,34,14.70
2009,07,18,12,35,17.80
2009,07,18,12,36,15.60
2009,07,18,12,37,8.80
2009,07,18,12,38,9.10
2009,07,18,12,39,16.80
2009,07,18,12,40,17.90
2009,07,18,12,41,8.30
2009,07,18,12,42,8.70
2009,07,18,12,43,7.20
2009,07,18,12,44,14.00
2009,07,18,12,45,18.10
2009,07,18,12,46,16.10
2009,07,18,12,47,13.90
2009,07,18,12,48,13.40
2009,07,18,12,49,10.50
2009,07,18,12,50,18.10
2009,07,18,12,51,15.50
2009,07,18,12,52,15.20
2009,07,18,12,53,9.30
2009,07,18,12,54,16.50
2009,07,18,12,55,17.30
2009,07,18,12,56,16.00
2009,07,18,12,57,12.70
2009,07,18,12,58,20.10
2009,07,18,12,59,20.00
2009,07,18,13,00,18.60
2009,07,18,13,01,17.90
2009,07,18,13,02,19.80
2009,07,18,13,03,17.80
2009,07,18,13,04,17.50
2009,07,18,13,05,20.60
2009,07,18,13,06,12.00
2009,07,18,13,07,11.20
2009,07,18,13,08,18.50
2009,07,18,13,09,8.10
2009,07,18,13,10,14.60
2009,07,18,13,11,21.90
2009,07,18,13,12,23.40
2009,07,18,13,13,26.80
2009,07,18,13,14,22.00
2009,07,18,13,15,13.50
2009,07,18,13,16,13.40
2009,07,18,13,17,15.40
2009,07,18,13,18,11.00
2009,07,18,13,19,17.60
2009,07,18,13,20,13.90
2009,07,18,13,21,18.40
2009,07,18,13,22,21.10
2009,07,18,13,23,20.00
2009,07,18,13,24,14.70
2009,07,18,13,25,10.40
2009,07,18,13,26,13.90
2009,07,18,13,27,13.00
2009,07,18,13,28,14.00
2009,07,18,13,29,12.90
2009,07,18,13,30,10.00
2009,07,18,13,31,10.60
2009,07,18,13,32,21.20
2009,07,18,13,33,14.30
2009,07,18,13,34,22.80
2009,07,18,13,35,16.10
2009,07,18,13,36,13.00
2009,07,18,13,37,15.30
2009,07,18,13,38,17.70
2009,07,18,13,39,14.00
2009,07,18,13,40,14.40
2009,07,18,13,41,18.80
2009,07,18,13,42,18.40
2009,07,18,13,43,13.70
2009,07,18,13,44,14.00
2009,07,18,13,45,20.10
2009,07,18,13,46,10.50
2009,07,18,13,47,14.80
2009,07,18,13,48,13.90
2009,07,18,13,49,13.50
2009,07,18,13,50,18.20
2009,07,18,13,51,20.20
2009,07,18,13,52,15.80
2009,07,18,13,53,16.50
2009,07,18,13,54,10.60
2009,07,18,13,55,13.70
2009,07,18,13,56,15.90
2009,07,18,13,57,14.40
2009,07,18,13,58,15.40
2009,07,18,13,59,14.60
2009,07,18,14,00,13.20
2009,07,18,14,01,14.10
2009,07,18,14,02,20.70
2009,07,18,14,03,20.20
2009,07,18,14,04,13.80
2009,07,18,14,05,19.90
2009,07,18,14,06,16.40
2009,07,18,14,07,11.10
2009,07,18,14,08,14.50
2009,07,18,14,09,14.30
2009,07,18,14,10,12.30
2009,07,18,14,11,12.60
2009,07,18,14,12,15.10
2009,07,18,14,13,10.20
2009,07,18,14,14,14.00
2009,07,18,14,15,11.90
2009,07,18,14,16,18.50
2009,07,18,14,17,20.50
2009,07,18,14,18,22.40
2009,07,18,14,19,23.60
2009,07,18,14,20,22.30
2009,07,18,14,21,14.40
2009,07,18,14,22,23.50
2009,07,18,14,23,22.00
2009,07,18,14,24,21.30
2009,07,18,14,25,25.20
2009,07,18,14,26,16.50
2009,07,18,14,27,13.20
2009,07,18,14,28,9.90
2009,07,18,14,29,21.90
2009,07,18,14,30,21.30
2009,07,18,14,31,28.60
2009,07,18,14,32,21.20
2009,07,18,14,33,20.00
2009,07,18,14,34,17.90
2009,07,18,14,35,15.70
2009,07,18,14,36,20.40
2009,07,18,14,37,11.90
2009,07,18,14,38,12.40
2009,07,18,14,39,7.90
2009,07,18,14,40,15.40
2009,07,18,14,41,16.40
2009,07,18,14,42,13.70
2009,07,18,14,43,19.90
2009,07,18,14,44,21.20
2009,07,18,14,45,21.10
2009,07,18,14,46,15.20
2009,07,18,14,47,22.20
2009,07,18,14,48,18.10
2009,07,18,14,49,20.00
2009,07,18,14,50,26.50
2009,07,18,14,51,23.30
2009,07,18,14,52,18.70
2009,07,18,14,53,22.70
2009,07,18,14,54,17.60
2009,07,18,14,55,20.10
2009,07,18,14,56,14.60
2009,07,18,14,57,14.90
2009,07,18,14,58,16.00
2009,07,18,14,59,19.20
2009,07,18,15,00,16.40
2009,07,18,15,01,18.40
2009,07,18,15,02,13.40
2009,07,18,15,03,12.20
2009,07,18,15,04,18.90
2009,07,18,15,05,12.50
2009,07,18,15,06,17.60
2009,07,18,15,07,19.60
2009,07,18,15,08,16.10
2009,07,18,15,09,17.90
2009,07,18,15,10,19.30
2009,07,18,15,11,24.10
2009,07,18,15,12,14.10
2009,07,18,15,13,14.20
2009,07,18,15,14,15.50
2009,07,18,15,15,15.90
2009,07,18,15,16,23.50
2009,07,18,15,17,22.60
2009,07,18,15,18,21.80
2009,07,18,15,19,18.10
2009,07,18,15,20,12.80
2009,07,18,15,21,12.50
2009,07,18,15,22,17.10
2009,07,18,15,23,10.50
2009,07,18,15,24,12.90
2009,07,18,15,25,22.30
2009,07,18,15,26,15.80
2009,07,18,15,27,17.50
2009,07,18,15,28,16.20
2009,07,18,15,29,15.70
2009,07,18,15,30,22.30
2009,07,18,15,31,21.40
2009,07,18,15,32,15.50
2009,07,18,15,33,17.10
2009,07,18,15,34,17.40
2009,07,18,15,35,8.10
2009,07,18,15,36,14.00
2009,07,18,15,37,17.90
2009,07,18,15,38,15.90
2009,07,18,15,39,17.60
2009,07,18,15,40,18.10
2009,07,18,15,41,13.00
2009,07,18,15,42,11.20
2009,07,18,15,43,12.80
2009,07,18,15,44,18.10
2009,07,18,15,45,13.80
2009,07,18,15,46,12.50
2009,07,18,15,47,18.60
2009,07,18,15,48,9.80
2009,07,18,15,49,5.80
2009,07,18,15,50,12.70
2009,07,18,15,51,17.50
2009,07,18,15,52,19.20
2009,07,18,15,53,13.20
2009,07,18,15,54,13.30
2009,07,18,15,55,11.90
2009,07,18,15,56,15.90
2009,07,18,15,57,20.40
2009,07,18,15,58,19.30
2009,07,18,15,59,15.30
2009,07,18,16,00,16.10
2009,07,18,16,01,19.20
2009,07,18,16,02,17.30
2009,07,18,16,03,16.10
2009,07,18,16,04,13.40
2009,07,18,16,05,16.70
2009,07,18,16,06,14.20
2009,07,18,16,07,15.80
2009,07,18,16,08,16.90
2009,07,18,16,09,11.00
2009,07,18,16,10,22.60
2009,07,18,16,11,21.30
2009,07,18,16,12,19.60
2009,07,18,16,13,18.70
2009,07,18,16,14,14.60
2009,07,18,16,15,17.30
2009,07,18,16,16,17.80
2009,07,18,16,17,10.60
2009,07,18,16,18,5.50
2009,07,18,16,19,16.90
2009,07,18,16,20,17.70
2009,07,18,16,21,9.10
2009,07,18,16,22,10.20
2009,07,18,16,23,18.10
2009,07,18,16,24,10.90
2009,07,18,16,25,13.00
2009,07,18,16,26,15.90
2009,07,18,16,27,20.20
2009,07,18,16,28,21.50
2009,07,18,16,29,16.70
2009,07,18,16,30,23.30
2009,07,18,16,31,18.40
2009,07,18,16,32,10.20
2009,07,18,16,33,12.50
2009,07,18,16,34,18.70
2009,07,18,16,35,12.60
2009,07,18,16,36,10.30
2009,07,18,16,37,10.90
2009,07,18,16,38,16.80
2009,07,18,16,39,16.00
2009,07,18,16,40,8.00
2009,07,18,16,41,8.00
2009,07,18,16,42,19.70
2009,07,18,16,43,18.10
2009,07,18,16,44,11.90
2009,07,18,16,45,22.20
2009,07,18,16,46,9.30
2009,07,18,16,47,17.50
2009,07,18,16,48,12.50
2009,07,18,16,49,19.50
2009,07,18,16,50,20.00
2009,07,18,16,51,12.50
2009,07,18,16,52,13.90
2009,07,18,16,53,18.40
2009,07,18,16,54,13.10
2009,07,18,16,55,16.40
2009,07,18,16,56,14.80
2009,07,18,16,57,14.00
2009,07,18,16,58,15.40
2009,07,18,16,59,17.20
2009,07,18,17,00,16.30
2009,07,18,17,01,12.50
2009,07,18,17,02,15.40
2009,07,18,17,03,14.60
2009,07,18,17,04,19.60
2009,07,18,17,05,11.80
2009,07,18,17,06,12.60
2009,07,18,17,07,15.90
2009,07,18,17,08,13.10
2009,07,18,17,09,14.10
2009,07,18,17,10,16.90
2009,07,18,17,11,14.20
2009,07,18,17,12,7.90
2009,07,18,17,13,13.00
2009,07,18,17,14,10.00
2009,07,18,17,15,9.20
2009,07,18,17,16,16.10
2009,07,18,17,17,13.70
2009,07,18,17,18,14.30
2009,07,18,17,19,19.60
2009,07,18,17,20,13.00
2009,07,18,17,21,11.50
2009,07,18,17,22,12.50
2009,07,18,17,23,7.90
2009,07,18,17,24,10.10
2009,07,18,17,25,11.40
2009,07,18,17,26,5.70
2009,07,18,17,27,19.30
2009,07,18,17,28,13.80
2009,07,18,17,29,13.10
2009,07,18,17,30,18.30
2009,07,18,17,31,19.90
2009,07,18,17,32,14.80
2009,07,18,17,33,11.10
2009,07,18,17,34,17.10
2009,07,18,17,35,10.00
2009,07,18,17,36,10.10
2009,07,18,17,37,13.40
2009,07,18,17,38,14.20
2009,07,18,17,39,16.50
2009,07,18,17,40,14.10
2009,07,18,17,41,16.30
2009,07,18,17,42,17.70
2009,07,18,17,43,18.50
2009,07,18,17,44,15.00
2009,07,18,17,45,15.20
2009,07,18,17,46,7.60
2009,07,18,17,47,20.70
2009,07,18,17,48,16.20
2009,07,18,17,49,20.80
2009,07,18,17,50,12.80
2009,07,18,17,51,15.10
2009,07,18,17,52,15.60
2009,07,18,17,53,8.70